Regional Weather Roundup
Issued by NWS Northern Indiana

Home | Current Version | Previous Version | Text Only | Print | Product List | Glossary Off
Versions: 1 2 3 4 5 6 7 8 9 10 11 12 13 14 15 16 17 18 19 20 21 22 23 24 25 26 27 28 29 30 31 32 33 34 35 36 37 38 39 40 41 42 43 44 45 46 47 48 49 50

000
ASUS43 KIWX 300610
RWRIWX

KIWX WEATHER ROUNDUP
NATIONAL WEATHER SERVICE NORTHERN INDIANA
200 AM EDT SAT APR 30 2016

NOTE: "FAIR" INDICATES FEW OR NO CLOUDS BELOW 12,000 FEET WITH NO
SIGNIFICANT WEATHER AND/OR OBSTRUCTIONS TO VISIBILITY.

* THESE STATIONS ARE NOT UNDER NWS QUALITY CONTROL. THEY ALSO MAY NOT
  REPORT WEATHER SUCH AS PRECIPITATION OR FOG.

INZ001>027-300700-
NORTHERN INDIANA

CITY           SKY/WX    TMP DP  RH WIND       PRES   REMARKS
GARY*          CLOUDY    45  45 100 NE8       30.10F
VALPARAISO     PTCLDY    40  39  97 N5        30.09F FOG
6HR MIN TEMP:  40; 6HR MAX TEMP:  45;

MICHIGAN CITY* CLOUDY    41  41 100 CALM      30.11R FOG
LAPORTE*       CLOUDY    45  45 100 NE5       30.10S
6HR MIN TEMP:  45; 6HR MAX TEMP:  47;

KNOX*          CLOUDY    37  36  93 NE6       30.08F
SOUTH BEND     CLOUDY    44  41  89 NE3       30.11R
6HR MIN TEMP:  42; 6HR MAX TEMP:  49;

GOSHEN         CLOUDY    47  41  80 SE9       30.12R
6HR MIN TEMP:  47; 6HR MAX TEMP:  52;

MONTICELLO*    CLOUDY    46  43  88 NE7       30.04F FOG
6HR MIN TEMP:  46; 6HR MAX TEMP:  53;

LOGANSPORT*    CLOUDY    48  45  87 NE7       30.06F
ROCHESTER*     CLOUDY    50  46  87 E8        30.08F
WARSAW*        MOCLDY    45  41  87 E8        30.11R
ANGOLA*        CLOUDY    46  34  61 E8        30.12F
FORT WAYNE     MOCLDY    46  42  86 E8        30.12S
6HR MIN TEMP:  46; 6HR MAX TEMP:  53;

HUNTINGTON*    MOCLDY   N/A N/A N/A E6        30.10F
PERU/GRISSOM   CLOUDY    50  45  82 E14       30.04F
6HR MIN TEMP:  48; 6HR MAX TEMP:  55;

MARION*        CLOUDY    49  44  84 E8        30.08F
6HR MIN TEMP:  -1; 6HR MAX TEMP:  82;


$$
INZ028>050-300700-
CENTRAL INDIANA

CITY           SKY/WX    TMP DP  RH WIND       PRES   REMARKS
LAFAYETTE      CLOUDY    49  46  90 E8        30.04F
6HR MIN TEMP:  48; 6HR MAX TEMP:  53;

KOKOMO*        CLOUDY    48  43  81 E9        30.05F
6HR MIN TEMP:  48; 6HR MAX TEMP:  55;

MUNCIE*        CLOUDY    51  46  83 E9        30.08F
6HR MIN TEMP:  50; 6HR MAX TEMP:  58;

INDIANAPOLIS   CLOUDY    53  46  77 E13       30.01F
6HR MIN TEMP:  53; 6HR MAX TEMP:  61;


$$
MIZ043>046-050>051-056>058-064>065-071>073-077>080-300700-
SOUTHWEST LOWER MICHIGAN

CITY           SKY/WX    TMP DP  RH WIND       PRES   REMARKS
BATTLE CREEK   CLOUDY    48  40  73 E5        30.13F
6HR MIN TEMP:  48; 6HR MAX TEMP:  50;

BENTON HARBOR  CLOUDY    48  42  80 E5        30.12R
6HR MIN TEMP:  46; 6HR MAX TEMP:  49;

COLDWATER*     CLOUDY    47  38  71 SE5       30.12F
6HR MIN TEMP:  47; 6HR MAX TEMP:  52;

HILLSDALE*     CLOUDY    46  38  75 SE6       30.13S
6HR MIN TEMP:  46; 6HR MAX TEMP:  50;

HOLLAND        CLEAR     43  38  82 NE6       30.13F
6HR MIN TEMP:  42; 6HR MAX TEMP:  50;

GRAND RAPIDS   CLEAR     40  37  89 E6        30.13F
6HR MIN TEMP:  40; 6HR MAX TEMP:  50;

KALAMAZOO      CLOUDY    49  40  71 E3        30.13S
6HR MIN TEMP:  48; 6HR MAX TEMP:  52;

STURGIS*       CLOUDY    47  41  80 E8        30.11S
6HR MIN TEMP:  47; 6HR MAX TEMP:  51;

THREE RIVERS*  CLOUDY    49  42  76 E6        30.12S
6HR MIN TEMP:  48; 6HR MAX TEMP:  52;


$$
OHZ001>008-015>018-024>025-300700-
NORTHWEST OHIO

CITY           SKY/WX    TMP DP  RH WIND       PRES   REMARKS
WAUSEON*         N/A     46 N/A N/A SE7       30.14F
DEFIANCE       CLOUDY    46  39  76 E6        30.13F
6HR MIN TEMP:  46; 6HR MAX TEMP:  52;

FINDLAY        CLOUDY    42  36  79 E3        30.13F
6HR MIN TEMP:  42; 6HR MAX TEMP:  50;

TOLEDO EXPRESS CLOUDY    44  38  79 S3        30.15S
6HR MIN TEMP:  43; 6HR MAX TEMP:  48;

TOLEDO METCALF CLEAR     42  37  82 CALM      30.16S
6HR MIN TEMP:  42; 6HR MAX TEMP:  48;

LIMA           CLOUDY    44  41  89 E10       30.11F
6HR MIN TEMP:  44; 6HR MAX TEMP:  52;


$$
AND FOR LAKE MICHIGAN COASTAL AND OPEN LAKE BUOY OBSERVATIONS

STATION/POSITION TEMP    WIND        PRES    VSBY  WAVE
                 AIR SEA DIR/SP/G                  HT/PER
                 (F)     (DEG/KT/KT) (MB)    (MI)  (FT/S)
CALUMET HARBOR    43      20/  7/  9 1018.8F
MICHIGAN CITY     45      50/  8/  9   N/A
BURNS HARBOR      44      50/  8/ 11 1019.6F
SAINT JOSEPH      48      20/  1/  3 1020.3F
SOUTH LAKE BUOY   42 40   70/  8/ 10 1020.1F         1
4 MI NW BRIDGMAN  49 47                N/A           2/ 4

$$
&&



USA.gov is the U.S. government's official web portal to all federal, state and local government web resources and services.